User: anonymous   Login
Location: Albany
(35.0000°S, 118.0000°E)
Time: 05:36:07
(UTC-04:00)
Language:

Cosmos 1933 - Orbit

View from above orbital plane
View from above orbital plane
View from above satellite
View from above satellite

Ground track
Ground track

The orbit data is extracted from the following two-line orbital elements,

1 18958U 88020A   14294.17758563  .00003640  00000-0  28304-3 0  4629
2 18958 082.5286 318.7897 0011316 346.4439 013.6480 15.00971982445874
Epoch (UTC): 21 October 2014 04:15:43
Eccentricity: 0.0011316
inclination: 82.5286°
perigee height: 556 km
apogee height: 572 km
right ascension of ascending node: 318.7897°
argument of perigee: 346.4439°
revolutions per day: 15.00971982
mean anomaly at epoch: 13.6480°
orbit number at epoch: 44587

The dashed part of the orbit path shows where the satellite is in the earth's shadow,  

DLR